Location: Utrecht
(52.0907°N, 5.1214°E)
Time: 22:39:21
(UTC+02:00)

YUBILEINY - Visible Passes

Search period start: 26 June 2022 00:00
Search period end: 06 July 2022 00:00
Orbit: 1479 x 1507 km, 82.5° (Epoch: 26 June)

Date Brightness Start Highest point End Pass type
(mag) Time Alt. Az. Time Alt. Az. Time Alt. Az.
26 Jun ? 04:13:26 10° N 04:20:10 23° NE 04:26:49 10° E visible
26 Jun ? 23:21:04 10° NW 23:23:50 12° NNW 23:26:36 10° NNW visible
27 Jun ? 03:24:24 10° N 03:29:11 15° NE 03:33:55 10° ENE visible
28 Jun ? 02:37:17 10° NNE 02:37:46 10° NNE 02:38:16 10° NNE visible
28 Jun ? 04:30:51 10° N 04:38:30 31° ENE 04:46:04 10° ESE visible
29 Jun ? 03:41:35 10° N 03:47:49 20° NE 03:53:59 10° E visible
29 Jun ? 22:47:32 10° WNW 22:51:18 13° NW 22:55:06 10° N visible
30 Jun ? 02:52:43 10° N 02:56:42 13° NE 03:00:40 10° ENE visible
01 Jul ? 03:58:56 10° N 04:06:14 27° NE 04:13:27 10° ESE visible
02 Jul ? 03:09:45 10° N 03:15:25 18° NE 03:21:02 10° E visible
03 Jul ? 02:21:11 10° NNE 02:24:11 12° NNE 02:27:10 10° NE visible
03 Jul ? 04:16:24 10° N 04:24:28 37° ENE 04:32:24 10° SE visible
04 Jul ? 03:27:03 10° N 03:33:56 24° NE 03:40:44 10° ESE visible
05 Jul ? 02:37:59 10° N 02:42:59 16° NE 02:47:58 10° ENE visible
05 Jul ? 04:33:55 10° N 04:42:30 51° ENE 04:50:57 10° SE visible
